GSAT0217 (GALILEO 21)

Last updated on Nov. 19, 2019, 4:25 a.m. UTC

1 43057U 17079C   19322.87998074 -.00000012  00000-0  00000+0 0  9995
2 43057  56.4361 287.5998 0005089 279.5609  80.3711  1.70473585 12030
UTC
Height (km)
Latitude
Longitude
Inclination
Orbital Period
UTC large
Height (km)
Speed (km/s)
/
Latitude / Longitude
Inclination (degrees)
Orbital Period (minutes)
Azimuth
Elevation
Range (km)
Doppler Factor
iOS Compass Heading
iOS Angle

Next 30 passes for location: Hong Kong

Rise time Rise Azimuth (degrees) Set time Set Azimuth (degrees) Duration Max altitude (degrees)

No matching passes for this satellites